This is the latest recevied weather packets stored in our database for station/object OE3BIA-11. If no packets are shown the sender has not sent any weather packets the latest 1 day(s).
| Time | Temp. | Humidity | Pressure | Rain* | Wind** | Luminosity | Snow |
|---|---|---|---|---|---|---|---|
| 1777999754 | 23.89° C | 3% | - | - | 2.68 m/s, 90° | - | - |
| 1777999452 | 23.89° C | 3% | - | - | 2.68 m/s, 90° | - | - |
| 1777999149 | 23.89° C | 3% | - | - | 2.68 m/s, 90° | - | - |
| 1777998543 | 23.89° C | 3% | - | - | 3.58 m/s, 90° | - | - |
| 1777998240 | 23.89° C | 4% | - | - | 2.68 m/s, 90° | - | - |
| 1777997632 | 23.89° C | 3% | - | - | 2.24 m/s, 90° | - | - |
| 1777997330 | 24.44° C | 3% | - | - | 2.68 m/s, 90° | - | - |
| 1777997027 | 25° C | 3% | - | - | 3.13 m/s, 90° | - | - |
| 1777996724 | 24.44° C | 3% | - | - | 3.13 m/s, 90° | - | - |
| 1777996421 | 24.44° C | 3% | - | - | 3.58 m/s, 90° | - | - |
| 1777996118 | 24.44° C | 3% | - | - | 4.02 m/s, 90° | - | - |
| 1777995816 | 24.44° C | 3% | - | - | 4.47 m/s, 90° | - | - |
| 1777995513 | 25° C | 3% | - | - | 5.81 m/s, 90° | - | - |
| 1777994905 | 25° C | 3% | - | - | 6.26 m/s, 90° | - | - |
| 1777994602 | 25° C | 3% | - | - | 4.92 m/s, 90° | - | - |
| 1777994299 | 25° C | 3% | - | - | 5.36 m/s, 90° | - | - |
| 1777993996 | 25.56° C | 3% | - | - | 4.92 m/s, 90° | - | - |
| 1777993694 | 25.56° C | 3% | - | - | 6.26 m/s, 67° | - | - |
| 1777993390 | 26.11° C | 3% | - | - | 5.81 m/s, 90° | - | - |
| 1777992782 | 25.56° C | 3% | - | - | 5.81 m/s, 90° | - | - |
| 1777992479 | 26.11° C | 3% | - | - | 5.81 m/s, 67° | - | - |
| 1777992176 | 26.67° C | 3% | - | - | 4.47 m/s, 90° | - | - |
| 1777991873 | 26.11° C | 3% | - | - | 6.26 m/s, 90° | - | - |
| 1777991571 | 26.67° C | 3% | - | - | 5.81 m/s, 67° | - | - |
| 1777990351 | 27.22° C | 2% | - | - | 5.36 m/s, 90° | - | - |
* Rain since midnight (hover to see other rain measurements)
** Current wind speed in m/s (hover to see current wind gust speed)